Wind_Speed
10 9 7 7 6 5 4 2 0 1 2 3 3 3 3 4 5 6 7 8 9 11 12 13 13 14 14 15 15 16 17 17 17 17 17 17 18 19 19 20 20 21 21 21 21 22 21 21 20
12 10 9 7 6 5 4 3 1 1 2 3 4 3 4 5 5 6 7 8 10 11 12 13 13 14 14 14 14 15 15 15 15 15 15 16 16 17 18 19 20 21 22 22 22 23 23 22 21
13 11 10 9 7 6 5 4 3 4 4 4 4 4 5 6 6 7 8 9 11 12 12 12 13 13 12 13 14 14 14 14 14 14 15 15 15 16 17 18 20 21 22 22 23 24 24 23 22
14 13 12 11 8 6 5 5 5 4 6 6 5 5 6 7 7 8 9 10 12 12 11 11 11 11 12 12 13 13 13 13 13 14 14 14 15 16 17 18 19 20 21 22 23 24 24 24 22
16 15 12 11 10 8 7 6 6 7 6 7 6 6 6 7 8 9 10 11 11 11 10 10 10 11 11 11 12 12 12 13 13 13 14 14 14 15 16 17 18 19 20 21 22 23 24 24 24
16 14 12 12 11 9 8 7 8 8 8 8 8 7 6 7 8 9 10 11 10 10 9 9 10 10 11 11 12 12 12 13 13 13 14 14 14 15 16 17 18 19 19 20 21 22 23 24 24
18 15 13 12 11 10 9 9 9 9 9 8 7 8 7 7 8 9 10 10 10 9 9 9 9 10 10 11 12 11 12 12 13 13 14 15 15 16 17 17 18 19 19 20 20 21 22 23 23
18 17 15 13 12 11 10 9 9 7 7 7 7 7 7 7 8 9 9 9 9 9 9 9 9 9 10 11 12 12 12 12 13 13 14 15 16 16 17 18 18 19 19 20 20 21 22 23 23
20 17 16 14 13 12 11 10 9 8 7 7 7 7 7 8 8 9 9 9 9 9 9 9 9 9 10 11 12 12 12 13 13 14 15 16 17 17 18 18 19 19 19 19 20 20 21 22 22
21 18 16 15 13 12 11 10 9 8 7 7 8 7 7 8 9 9 9 9 8 8 8 8 9 9 11 11 12 12 12 13 13 14 15 16 17 18 18 18 19 19 19 19 20 20 20 21 22
22 19 18 16 14 13 12 11 10 10 10 8 8 7 7 8 9 9 9 9 8 8 8 8 9 9 11 12 12 12 12 13 14 15 16 17 18 19 19 19 19 19 19 19 19 19 20 20 21
22 21 19 17 14 13 13 12 11 10 9 8 8 8 8 8 9 9 8 8 8 8 8 8 9 9 11 11 12 12 12 13 14 16 17 17 18 19 19 20 19 19 19 19 18 18 19 19 19
23 21 19 17 15 14 12 11 10 9 9 8 8 8 8 9 9 9 8 8 8 8 8 8 9 10 10 11 12 12 13 14 15 16 17 17 18 19 20 20 19 19 18 18 17 17 17 18 18
23 21 19 17 15 13 12 11 10 9 9 8 8 8 8 9 9 9 8 8 8 8 8 8 9 10 10 10 11 11 12 14 15 16 17 18 18 19 19 19 19 18 18 17 17 16 17 17 18
22 20 18 16 14 13 11 10 10 10 9 9 9 9 9 9 9 9 9 9 9 8 8 8 9 9 10 10 11 12 13 14 15 16 17 18 19 19 19 19 18 18 17 17 16 16 16 17 18
21 19 17 15 14 12 10 9 9 9 8 8 8 8 9 9 9 9 9 9 9 9 8 9 9 9 10 10 11 12 13 14 16 16 17 18 18 19 19 18 18 18 17 16 15 15 15 16 17
18 17 16 15 13 11 10 10 8 8 8 8 8 8 8 9 9 9 9 9 9 9 9 9 9 9 9 10 11 12 13 15 16 17 17 17 18 19 18 18 18 18 17 15 14 13 13 14 15
16 15 14 13 11 10 9 9 8 7 7 7 7 8 9 9 9 9 9 9 9 9 9 9 8 9 9 10 11 12 13 15 16 16 17 17 18 18 18 18 17 17 16 14 13 12 11 12 13
15 14 12 11 10 8 8 7 6 6 6 7 8 9 9 10 10 9 9 9 9 9 10 9 8 9 9 9 11 12 14 15 16 16 16 17 18 18 17 17 17 16 15 13 11 10 9 10 11
15 14 11 10 9 8 7 6 4 4 5 7 8 9 9 10 10 10 9 9 8 9 10 10 9 9 9 10 11 12 14 14 15 16 16 17 17 17 17 16 16 15 15 13 11 9 7 8 10
15 13 11 10 8 7 6 5 4 4 5 6 7 8 9 9 9 9 8 8 8 9 10 10 9 9 9 10 11 12 13 14 15 16 16 17 17 16 16 16 16 15 14 12 11 7 5 5 7
13 12 10 9 8 7 6 5 4 4 5 6 7 8 8 9 9 8 8 8 8 9 9 10 9 9 9 10 11 12 13 13 14 15 16 16 16 16 15 15 15 14 13 12 11 7 3 2 5
12 10 9 9 8 7 6 5 4 4 5 6 7 7 7 8 8 7 8 8 8 9 9 10 9 9 9 10 11 12 12 13 14 15 15 16 16 15 15 14 14 13 12 11 10 7 3 0 4
11 9 9 9 8 6 6 4 4 4 5 5 5 6 7 7 7 7 8 8 9 9 9 10 10 10 10 10 11 11 12 13 14 15 15 15 15 15 14 13 13 12 12 10 9 7 4 1 3
10 9 8 8 7 5 5 4 4 4 4 5 6 6 7 7 8 8 8 8 9 9 10 11 11 11 10 11 11 11 12 12 13 14 15 15 14 14 13 12 12 12 11 10 8 6 4 2 2
9 7 6 6 5 3 3 3 4 5 6 6 7 8 8 8 8 9 9 9 10 10 11 12 12 11 11 11 11 11 11 12 12 13 14 14 13 13 13 12 11 11 10 10 8 6 3 2 1
7 5 4 4 3 2 3 4 5 6 7 7 9 9 9 9 9 10 10 10 11 12 12 12 12 12 11 11 11 11 12 12 12 13 13 12 12 12 12 11 11 10 10 9 8 6 4 2 1
5 3 2 2 2 3 4 5 6 7 8 9 9 10 10 10 10 11 11 12 12 12 13 13 12 12 12 12 12 12 12 12 12 12 12 12 11 11 11 11 10 9 9 9 8 6 4 2 1
3 2 1 2 2 4 5 5 7 8 8 9 10 11 11 12 12 12 12 13 13 13 13 14 13 13 13 13 12 12 12 12 12 12 12 11 11 10 10 10 9 8 8 7 7 6 4 2 1
2 1 1 2 2 3 5 5 7 8 8 9 10 11 12 12 12 13 13 14 14 14 15 15 14 14 14 14 14 13 13 13 13 13 12 12 11 11 10 9 9 8 7 6 6 6 4 3 2
Wind_Direction
253 261 265 274 279 289 306 328 349 146 176 223 241 239 241 262 276 288 295 296 297 300 302 305 305 304 305 306 307 307 307 308 307 306 303 301 297 293 290 285 283 280 277 275 274 273 272 270 269
249 254 261 267 272 286 290 287 256 265 244 263 264 258 267 279 293 301 303 304 304 303 304 305 304 305 307 308 309 310 311 311 311 310 308 305 302 298 293 288 284 283 279 277 274 274 271 269 268
245 249 256 260 268 275 287 273 257 271 265 263 265 267 278 288 295 300 304 307 308 307 305 305 305 307 310 311 313 315 316 316 315 315 313 309 306 302 298 293 288 285 281 278 274 273 272 268 266
243 244 251 255 261 273 287 279 264 270 270 262 261 265 278 288 296 301 304 306 307 306 305 306 308 311 314 316 318 319 318 319 319 317 315 312 308 304 301 298 294 289 284 279 275 271 270 267 264
241 240 246 255 260 271 281 279 280 278 268 258 256 262 277 288 298 304 307 308 307 304 305 306 310 314 316 318 319 319 319 319 320 319 317 314 312 308 304 300 297 292 287 280 276 271 268 266 263
237 237 246 252 258 268 280 276 281 277 271 267 263 264 273 290 301 306 309 311 309 305 304 305 309 313 316 319 320 321 321 320 320 320 318 316 314 311 307 303 298 294 290 284 277 271 266 264 261
235 239 243 250 256 265 273 279 273 268 267 266 265 265 273 291 303 308 309 310 309 308 306 305 310 316 319 321 322 322 321 320 321 321 319 317 315 312 308 304 300 296 291 286 280 274 267 262 259
237 237 241 247 253 261 269 276 274 271 268 264 265 269 275 291 302 307 307 306 308 311 311 309 314 318 320 322 323 322 323 322 322 321 319 317 315 313 309 306 301 297 292 287 282 275 266 262 257
232 234 237 241 248 257 263 271 277 267 273 275 275 276 274 286 298 305 306 305 308 312 313 314 317 321 324 325 323 322 323 321 320 320 319 319 317 314 311 307 303 298 294 288 283 276 267 261 257
228 232 235 238 245 254 259 266 274 262 264 273 281 283 282 290 299 303 304 305 308 311 313 316 320 325 327 325 322 322 322 320 319 318 319 319 318 316 313 308 305 300 295 289 282 276 269 261 255
224 227 231 235 242 251 256 262 263 263 262 269 271 276 282 288 295 298 301 302 306 308 310 313 318 322 322 322 320 319 320 319 319 319 319 319 319 318 315 311 307 302 296 290 284 276 269 262 255
221 223 228 234 241 250 254 256 253 258 264 272 270 275 286 290 294 299 301 302 303 304 305 306 310 315 318 319 319 319 321 320 320 320 321 321 321 320 318 313 309 304 299 292 285 277 268 260 254
216 220 226 231 239 246 252 253 249 258 264 269 274 279 284 287 289 292 293 294 296 298 300 303 309 313 316 318 318 321 323 322 322 322 322 321 322 322 320 316 312 307 301 294 286 278 266 257 250
213 215 222 228 237 244 252 255 254 256 257 264 268 270 275 281 285 290 287 286 289 293 296 302 306 310 313 316 320 324 325 324 324 323 323 323 324 325 323 320 316 311 304 296 287 278 266 256 247
209 212 217 223 233 241 250 253 252 252 254 259 262 266 272 277 280 286 286 285 286 291 295 299 302 306 311 317 321 325 328 328 327 325 325 325 327 327 326 323 319 314 308 300 291 279 268 256 246
206 210 216 223 234 240 246 251 249 246 252 255 262 269 270 271 279 283 284 285 287 290 295 298 303 307 312 317 322 327 330 331 329 327 326 328 329 330 328 326 323 320 313 304 294 282 269 256 245
200 206 214 222 231 239 244 246 242 237 249 260 267 272 272 274 281 281 284 287 288 292 296 301 304 308 310 315 321 328 330 331 330 329 328 330 331 332 331 330 328 325 318 309 300 288 272 255 243
195 200 206 217 224 228 234 236 240 237 253 267 272 275 277 279 280 279 282 285 288 293 297 304 306 308 311 315 321 327 330 332 332 331 330 332 333 334 334 334 332 330 324 316 306 294 276 255 240
186 189 192 198 202 210 212 222 233 247 266 271 272 274 277 279 279 277 280 285 286 290 296 303 307 308 311 317 323 327 331 333 333 333 332 333 335 337 337 337 337 336 332 326 314 299 279 253 236
175 180 180 182 184 186 190 200 226 239 249 262 272 277 278 279 277 276 278 281 285 289 296 302 305 307 313 319 324 329 331 332 333 334 334 334 336 338 339 339 341 341 340 337 328 307 283 249 229
167 174 176 181 183 188 191 200 218 232 248 263 274 280 280 279 280 280 281 285 289 292 295 300 303 307 314 319 324 329 332 333 334 335 336 337 340 340 342 343 344 344 346 346 342 326 292 241 222
163 168 173 176 179 177 182 195 215 235 255 268 275 280 281 280 281 284 287 292 293 294 297 301 303 308 314 320 325 329 332 333 335 337 338 339 341 342 344 345 347 349 350 352 354 349 326 241 205
157 163 160 160 164 167 179 198 218 244 266 279 279 285 287 285 286 290 291 294 297 297 299 303 305 308 312 318 324 327 329 332 335 338 340 341 342 345 345 348 351 353 356 358 2 3 2 263 185
156 157 155 158 162 170 179 201 223 251 278 294 296 300 295 291 294 299 299 300 300 300 302 304 306 310 312 316 319 322 326 331 335 338 341 342 344 347 348 351 355 358 1 1 6 14 25 69 158
159 161 162 162 164 169 181 210 235 260 287 305 311 310 307 304 305 306 307 305 303 303 305 307 307 308 310 313 314 317 323 329 334 338 341 343 346 349 352 354 358 2 6 8 13 18 29 64 146
161 163 166 165 164 172 203 232 259 280 299 314 320 318 315 311 308 309 311 309 306 306 307 308 308 307 307 309 309 312 318 325 331 335 339 343 347 351 355 358 360 3 7 11 15 18 23 46 125
160 161 162 176 192 225 247 261 273 290 303 315 321 319 314 309 307 306 307 308 308 308 307 306 305 304 303 304 305 306 311 318 325 331 335 339 344 349 353 357 358 3 8 13 19 24 28 40 91
154 160 173 205 242 263 268 276 290 304 314 319 319 319 314 308 306 304 304 306 307 307 305 304 301 300 300 299 300 302 305 310 316 323 330 332 336 342 348 354 358 1 6 11 17 21 27 37 42
148 155 200 244 256 268 280 290 306 312 318 321 321 319 317 311 306 302 304 306 306 307 304 302 300 299 298 297 296 298 300 303 308 314 320 325 327 331 337 343 348 354 358 3 7 9 11 10 342
144 173 273 287 297 297 297 300 311 318 323 322 321 320 317 314 309 305 304 305 305 305 304 302 300 299 298 297 294 294 295 297 300 304 309 315 318 320 323 329 333 339 346 351 356 359 1 358 333
Height
5866 5866 5867 5868 5869 5869 5869 5870 5869 5870 5870 5871 5872 5872 5873 5873 5875 5877 5876 5874 5874 5873 5872 5871 5871 5870 5869 5868 5866 5865 5864 5862 5861 5860 5859 5858 5857 5857 5856 5856 5856 5856 5856 5857 5858 5858 5859 5860 5861
5864 5865 5867 5868 5868 5869 5870 5869 5870 5870 5871 5871 5871 5872 5872 5872 5872 5873 5873 5872 5872 5871 5870 5870 5869 5868 5867 5866 5864 5863 5861 5860 5859 5857 5856 5855 5854 5854 5853 5853 5852 5852 5853 5853 5854 5854 5855 5856 5857
5862 5864 5866 5867 5867 5868 5869 5869 5869 5869 5870 5870 5870 5871 5871 5871 5871 5871 5871 5871 5870 5869 5868 5868 5867 5866 5865 5864 5862 5861 5860 5858 5857 5855 5854 5853 5852 5851 5850 5849 5849 5849 5848 5849 5849 5850 5850 5851 5853
5861 5863 5865 5866 5866 5867 5868 5869 5869 5869 5869 5869 5870 5870 5870 5870 5870 5870 5869 5869 5868 5867 5867 5866 5865 5864 5863 5862 5860 5859 5858 5856 5855 5853 5852 5851 5849 5848 5847 5846 5845 5845 5844 5845 5845 5845 5846 5847 5848
5859 5861 5862 5863 5864 5866 5867 5868 5868 5868 5868 5868 5869 5869 5869 5869 5869 5869 5868 5867 5866 5866 5865 5864 5863 5862 5861 5860 5859 5857 5856 5855 5853 5851 5850 5848 5847 5846 5845 5843 5842 5841 5841 5840 5840 5841 5841 5842 5843
5856 5858 5861 5862 5863 5864 5865 5866 5867 5867 5867 5867 5868 5868 5868 5868 5868 5867 5867 5866 5865 5864 5863 5863 5862 5861 5860 5858 5857 5856 5854 5853 5851 5849 5848 5846 5845 5843 5842 5840 5839 5838 5837 5836 5836 5836 5836 5837 5839
5854 5856 5858 5860 5861 5863 5864 5865 5865 5865 5865 5866 5866 5867 5867 5867 5867 5866 5865 5864 5863 5862 5862 5861 5860 5859 5858 5857 5855 5854 5852 5851 5849 5847 5846 5844 5842 5840 5839 5837 5835 5834 5833 5832 5831 5831 5831 5832 5834
5851 5854 5856 5858 5860 5861 5862 5863 5863 5864 5864 5865 5865 5866 5866 5866 5865 5864 5863 5863 5862 5861 5860 5860 5859 5857 5856 5855 5854 5852 5850 5849 5847 5845 5844 5842 5840 5838 5835 5833 5832 5830 5828 5827 5826 5826 5827 5827 5829
5848 5852 5853 5856 5858 5859 5860 5861 5862 5862 5863 5863 5864 5864 5864 5864 5863 5863 5862 5861 5860 5860 5859 5858 5857 5856 5854 5853 5852 5850 5848 5847 5845 5843 5841 5839 5837 5835 5832 5830 5828 5826 5824 5823 5822 5821 5821 5823 5824
5845 5848 5851 5854 5856 5857 5859 5860 5860 5861 5861 5862 5862 5862 5862 5862 5862 5861 5860 5860 5859 5858 5857 5856 5856 5854 5853 5851 5850 5848 5846 5845 5843 5841 5839 5836 5834 5831 5829 5826 5824 5822 5820 5818 5817 5817 5817 5818 5819
5841 5845 5848 5851 5853 5855 5857 5858 5859 5859 5860 5860 5861 5861 5861 5861 5860 5860 5859 5858 5857 5857 5856 5855 5854 5853 5851 5850 5848 5847 5845 5843 5841 5839 5836 5834 5831 5828 5825 5822 5820 5817 5815 5814 5813 5812 5812 5813 5814
5839 5842 5846 5849 5851 5853 5855 5856 5857 5858 5859 5859 5859 5859 5859 5859 5859 5858 5857 5857 5856 5855 5854 5853 5852 5851 5850 5848 5847 5845 5843 5841 5839 5836 5834 5831 5828 5825 5822 5819 5816 5813 5811 5809 5808 5807 5807 5808 5810
5836 5840 5843 5846 5849 5851 5853 5854 5855 5856 5857 5857 5857 5857 5857 5857 5857 5856 5856 5855 5854 5854 5853 5852 5851 5850 5848 5847 5845 5843 5841 5839 5836 5834 5831 5828 5825 5822 5818 5815 5812 5809 5806 5804 5803 5803 5803 5803 5805
5833 5837 5841 5844 5847 5849 5851 5852 5854 5855 5855 5856 5856 5856 5855 5855 5855 5855 5854 5854 5853 5852 5851 5850 5849 5848 5846 5845 5843 5841 5839 5837 5834 5831 5829 5825 5822 5818 5815 5811 5808 5805 5802 5800 5799 5798 5798 5799 5800
5831 5836 5839 5842 5845 5847 5849 5851 5852 5852 5853 5853 5854 5854 5854 5853 5853 5853 5852 5852 5851 5850 5850 5848 5847 5846 5844 5843 5841 5839 5837 5834 5832 5829 5826 5822 5819 5815 5811 5808 5804 5801 5798 5796 5794 5793 5793 5794 5796
5829 5834 5838 5841 5843 5845 5849 5850 5850 5850 5851 5851 5852 5852 5852 5852 5851 5851 5850 5850 5849 5848 5848 5847 5845 5844 5842 5841 5839 5837 5835 5832 5829 5826 5823 5820 5816 5812 5808 5805 5801 5798 5794 5792 5790 5789 5789 5789 5791
5828 5833 5836 5839 5841 5844 5846 5848 5849 5849 5849 5850 5850 5850 5850 5850 5849 5849 5848 5848 5847 5846 5845 5844 5843 5842 5840 5839 5837 5835 5832 5830 5827 5824 5821 5817 5813 5810 5806 5802 5798 5794 5791 5788 5786 5785 5785 5785 5787
5828 5831 5835 5838 5840 5842 5844 5846 5847 5847 5848 5848 5848 5848 5848 5848 5847 5847 5846 5846 5845 5844 5843 5842 5841 5840 5838 5837 5835 5833 5830 5828 5825 5822 5818 5815 5811 5807 5803 5799 5796 5792 5788 5785 5783 5782 5781 5781 5783
5827 5831 5834 5837 5839 5841 5843 5844 5846 5846 5847 5847 5847 5847 5846 5846 5846 5845 5845 5844 5843 5842 5841 5840 5839 5838 5836 5835 5833 5831 5828 5826 5823 5820 5816 5813 5809 5805 5801 5797 5793 5790 5786 5783 5780 5779 5778 5779 5780
5827 5831 5833 5836 5838 5840 5842 5844 5845 5845 5846 5846 5846 5845 5845 5844 5844 5843 5843 5842 5841 5841 5839 5838 5837 5836 5835 5833 5831 5829 5826 5824 5821 5818 5815 5811 5807 5804 5800 5796 5792 5788 5784 5781 5779 5777 5776 5776 5777
5827 5831 5834 5836 5838 5840 5842 5844 5844 5845 5845 5845 5845 5844 5843 5843 5842 5842 5841 5840 5840 5839 5838 5837 5835 5834 5833 5831 5829 5827 5825 5822 5820 5817 5813 5810 5806 5802 5798 5795 5791 5787 5784 5780 5778 5776 5775 5775 5776
5828 5831 5833 5835 5838 5840 5842 5843 5844 5844 5844 5844 5844 5843 5842 5841 5841 5840 5839 5838 5838 5837 5836 5835 5833 5832 5831 5829 5827 5825 5823 5821 5818 5815 5812 5808 5805 5801 5797 5794 5790 5786 5783 5780 5777 5775 5774 5775 5775
5829 5831 5833 5836 5838 5840 5842 5843 5844 5843 5844 5843 5843 5842 5841 5840 5839 5838 5837 5837 5836 5835 5834 5832 5831 5830 5829 5827 5826 5824 5822 5820 5817 5814 5811 5807 5804 5800 5797 5793 5790 5786 5783 5780 5778 5776 5775 5775 5776
5830 5833 5834 5836 5838 5840 5841 5843 5843 5843 5843 5842 5841 5840 5839 5838 5837 5837 5836 5835 5834 5833 5832 5830 5829 5828 5827 5825 5824 5822 5820 5818 5816 5813 5810 5807 5803 5800 5796 5793 5790 5786 5783 5781 5779 5777 5776 5776 5777
5832 5834 5835 5836 5838 5840 5841 5841 5842 5841 5841 5841 5840 5839 5838 5837 5836 5835 5834 5833 5832 5831 5829 5828 5827 5826 5825 5823 5822 5821 5819 5817 5815 5812 5809 5806 5803 5800 5796 5793 5790 5787 5784 5782 5780 5778 5777 5777 5778
5832 5834 5836 5837 5838 5839 5840 5840 5841 5841 5840 5840 5839 5837 5836 5835 5834 5833 5832 5831 5830 5828 5827 5826 5825 5823 5822 5821 5820 5819 5817 5815 5813 5811 5808 5806 5803 5800 5797 5793 5791 5788 5785 5783 5781 5779 5778 5778 5778
5832 5834 5836 5837 5838 5839 5839 5840 5840 5840 5839 5838 5837 5836 5835 5834 5832 5831 5830 5828 5827 5826 5825 5824 5822 5821 5820 5820 5818 5817 5815 5814 5812 5810 5808 5805 5803 5800 5797 5794 5791 5789 5786 5784 5782 5781 5780 5779 5779
5833 5834 5836 5837 5837 5838 5839 5839 5839 5838 5838 5837 5836 5834 5833 5831 5830 5829 5828 5826 5825 5824 5822 5821 5820 5819 5818 5817 5816 5815 5813 5812 5811 5809 5807 5804 5802 5800 5797 5795 5792 5790 5788 5786 5784 5782 5781 5780 5780
5834 5835 5835 5836 5836 5837 5837 5839 5837 5836 5835 5834 5833 5832 5831 5829 5828 5827 5825 5824 5823 5821 5820 5819 5818 5816 5815 5815 5814 5812 5811 5810 5809 5807 5805 5803 5801 5799 5797 5795 5793 5790 5788 5786 5785 5783 5782 5781 5781
5833 5834 5834 5835 5835 5835 5835 5839 5835 5834 5833 5832 5831 5830 5828 5827 5825 5824 5823 5822 5820 5819 5818 5816 5815 5814 5813 5812 5811 5810 5809 5808 5806 5805 5804 5802 5800 5798 5796 5795 5793 5790 5789 5787 5785 5784 5783 5782 5781